Flag for United Kingdom Weather past 2 weeks in Kingston upon Hull, England, United Kingdom

Now
54 °F

Passing clouds.


Feels Like: 50 °F
Forecast: 53 / 59 °F
Wind: 10 mph from Northwest

Location: Humberside

Current Time: Sep 3, 2015 at 10:16:45 AM

Latest Report: Sep 3, 2015 at 9:20 AM


Visibility: N/A

Pressure: 29.95 "Hg

Humidity: 77%

Dew point: 46 °F

Location of Kingston upon HullLocation

Historic Weather in Kingston upon Hull — Graph

°F

Kingston upon Hull temperature yesterday

Maximum temperature yesterday: 64 °F (at 4:20 PM)
Minimum temperature yesterday: 50 °F (at 12:20 AM)
Average temperature yesterday: 56 °F

Past Weeks' High & Low Weather Summary

 TemperatureHumidityPressure
High79 °F (Aug 22, 1:50 PM)100% (Aug 20, 2:50 AM)30.09 "Hg (Aug 20, 2:50 AM)
Low50 °F (Aug 28, 1:20 AM)38% (Aug 27, 4:20 PM)29.47 "Hg (Aug 26, 6:50 AM)
Average62 °F79%29.87 "Hg
* Reported Aug 19 9:20 AM — Sep 3 9:20 AM, Kingston upon Hull, Weather by CustomWeather, © 2015

Note: Actual official high and low records may vary slightly from our data, if they occured in-between our weather recording intervals... More about our weather records

Advertising

Kingston upon Hull weather history for previous 24 hours

 ConditionsComfort  
Time TempWeatherWind HumidityBarometerVisibility
9:20 AM
Thu, Sep 3
54 °FPassing clouds.10 mph77%29.95 "HgN/A
8:50 AM54 °FScattered clouds.9 mph82%29.95 "HgN/A
8:20 AM54 °FPassing clouds.8 mph82%29.95 "HgN/A
7:50 AM52 °FPassing clouds.8 mph88%29.95 "HgN/A
7:20 AM52 °FPassing clouds.7 mph88%29.95 "HgN/A
6:50 AM52 °FPassing clouds.6 mph94%29.95 "Hg5 mi
6:20 AM52 °FPassing clouds.6 mph94%29.95 "Hg4 mi
5:20 AM50 °FPassing clouds.5 mph100%29.95 "Hg5 mi
4:20 AM52 °FPassing clouds.6 mph94%29.95 "HgN/A
3:50 AM52 °FPassing clouds.5 mph100%29.95 "HgN/A
3:20 AM52 °FMostly cloudy.3 mph94%29.95 "HgN/A
2:50 AM52 °FPassing clouds.5 mph100%29.95 "HgN/A
2:20 AM52 °FPassing clouds.3 mph100%29.98 "HgN/A
1:50 AM54 °FPartly cloudy.3 mph94%29.98 "HgN/A
1:20 AM54 °FLight rain. Overcast.2 mph94%29.98 "HgN/A
12:50 AM54 °FMostly cloudy.No wind94%29.98 "Hg5 mi
12:20 AM54 °FPassing clouds.2 mph94%29.98 "Hg5 mi
11:50 PM
Wed, Sep 2
54 °FLight rain. Mostly cloudy.3 mph94%29.98 "HgN/A
10:20 PM54 °FPassing clouds.3 mph94%30.01 "HgN/A
9:50 PM54 °FPassing clouds.5 mph100%30.01 "HgN/A
9:20 PM54 °FPassing clouds.5 mph100%30.01 "HgN/A
8:50 PM55 °FScattered showers. Passing clouds.5 mph94%30.01 "HgN/A
8:20 PM54 °FScattered showers. Scattered clouds.3 mph100%29.98 "HgN/A
7:50 PM55 °FScattered showers. Scattered clouds.5 mph94%30.01 "HgN/A
7:20 PM55 °FSprinkles. Scattered clouds.2 mph88%30.01 "HgN/A
6:50 PM55 °FSprinkles. Scattered clouds.8 mph88%30.01 "HgN/A
6:20 PM57 °FScattered showers. Scattered clouds.6 mph82%30.01 "HgN/A
5:50 PM59 °FScattered showers. Scattered clouds.8 mph77%30.01 "HgN/A
5:20 PM59 °FScattered showers. Scattered clouds.8 mph77%29.98 "HgN/A
4:50 PM61 °FScattered showers. Scattered clouds.9 mph72%29.98 "HgN/A
4:20 PM64 °FScattered showers. Scattered clouds.8 mph52%29.98 "HgN/A
3:50 PM63 °FScattered showers. Scattered clouds.6 mph56%30.01 "HgN/A
3:20 PM63 °FScattered showers. Passing clouds.7 mph52%30.01 "HgN/A
2:50 PM61 °FScattered showers. Scattered clouds.5 mph63%30.01 "HgN/A
2:20 PM61 °FScattered showers. Scattered clouds.7 mph63%30.01 "HgN/A
1:50 PM63 °FScattered showers. Scattered clouds.8 mph56%30.01 "HgN/A
1:20 PM61 °FScattered clouds.8 mph63%30.04 "HgN/A
12:50 PM61 °FScattered clouds.10 mph59%30.04 "HgN/A
12:20 PM61 °FScattered clouds.9 mph63%30.04 "HgN/A
11:50 AM61 °FScattered clouds.9 mph63%30.04 "HgN/A
11:20 AM59 °FScattered clouds.9 mph72%30.04 "HgN/A
10:50 AM57 °FScattered clouds.10 mph72%30.04 "HgN/A
10:20 AM57 °FScattered clouds.9 mph77%30.04 "HgN/A
Weather by CustomWeather, © 2015

See weather overviewHow to use our weather pages